TITAN 3C TRANSTAGE DEB, 38699

Orbit data source: Space-Track

TITAN 3C TRANSTAGE DEB, 38699 is space debris in GEO originally from a launch on Thu, 26 Sep 1968 UTC launched from the Air Force Eastern Test Range (AFETR). Debris objects in space refer to the collection of defunct objects orbiting the Earth. Examples of debris include non-operational satellites, rocket bodies, and fragments generated from explosions, collisions, or faulty payload assembly.

Not visible in the next 10 days
Identifier
38699, 1968-081Z
Orbit
GEO
Country
Flag of USUS
Related business
Manufacturer
Unknown
Mission
Spacecraft
Bus & Motor
Unknown
Mass
Unknown
Launch date (UTC)
1968-09-26 (58 years ago)
Launch vehicle
Unknown
Launch site
Air Force Eastern Test Range (AFETR)
Object type
Payload
Rocket body
Debris
Shape & HBR
Unknown shape, 1.1 m
Radar Cross Section
Small (<0.1 m²)

Expand to show TLE details & history
Last TLE update: 3 weeks ago

TLE from 3 weeks ago
0 TITAN 3C TRANSTAGE DEB
1 38699U 68081Z   26102.72666859 -.00000141  00000-0  00000-0 0  9995
2 38699   1.8235  41.0948 0099028 301.3048  87.9197  1.00849581 51204
Epoch: 2026-04-12T17:26Z
TLE epoch observation values (Epoch: 2026-04-12T17:26:24.166Z)
Latitude
0.9096°
Longitude
-31.08626°
Altitude
35,612.039 km
Speed
3.082 km/s
True Right ascension
04h 45m 46s
True Declination
0° 54' 31"
Sunlit
Object was in daylight at epoch
Visualization orbit readout
Latitude
Unknown
Longitude
Unknown
Altitude
Unknown
Speed
Unknown
Apparent Right ascension
Unknown
Apparent Declination
Unknown
Sunlit
N/A
Visualization observer readout
Local Sidereal Time
13:39:11
Azimuth
Unknown
Elevation
Unknown
Doppler factor
Unknown
Orbital elements
Apogee altitude
36,042.428 km
Perigee altitude
35,210.501 km
Semi-major axis
42,004.601 km
Eccentricity
0.0099
Inclination
1.8235°
RAAN
41.0948°
Arg. of periapsis
301.3048°
True anomaly
89.05417°
Mean anomaly
87.9197°
Eccentric anomaly
88.48689°
Mean motion
0.25211 °/min
Orbital period
1,427.92 mins
BSTAR
0
Loading maneuver chart data...
Computing Atmospheric mass density...

Documentation

Showing up to 5 results
|